When you browse on this site, cookies collect data to enhance your experience and personalize the content and advertising you see.
Visit our Privacy Policy to learn more. By continuing to use the site, you agree to this use of cookies and data.
  • In Czech Republic
  • List of Countries
  • For 7 days
  • Water Temperature
  • Satellite Maps
  • Weather Map
  • Weather Widgets
  • user-avatar
    Login

    Hourly Weather Kitzbuhel

    Today, 14 December, Friday

    Time Temperature Precipitation Wind Pressure Humidity
    00:00 -8°C° 0 mm 1 mps 673 mmHg 83%
    01:00 -9°C° 0 mm 1 mps 673 mmHg 80%
    02:00 -9°C° 0 mm 1 mps 673 mmHg 80%
    03:00 -9°C° 0 mm 1 mps 673 mmHg 81%
    04:00 -9°C° 0 mm 1 mps 673 mmHg 81%
    05:00 -9°C° 0 mm 1 mps 673 mmHg 80%
    06:00 -9°C° 0 mm 1 mps 673 mmHg 80%
    07:00 -9°C° 0 mm 1 mps 673 mmHg 80%
    08:00 -8°C° 0 mm 1 mps 673 mmHg 78%
    09:00 -7°C° 0 mm 1 mps 674 mmHg 75%
    10:00 -4°C° 0 mm 1 mps 674 mmHg 73%
    11:00 -3°C° 0 mm 1 mps 674 mmHg 71%
    12:00 -2°C° 0 mm 1 mps 674 mmHg 68%
    13:00 -1°C° 0 mm 1 mps 674 mmHg 66%
    14:00 -2°C° 0 mm 1 mps 674 mmHg 73%
    15:00 -3°C° 0 mm 1 mps 674 mmHg 79%
    16:00 -6°C° 0 mm 1 mps 674 mmHg 86%
    17:00 -6°C° 0 mm 1 mps 674 mmHg 88%
    18:00 -7°C° 0 mm 1 mps 675 mmHg 89%
    19:00 -8°C° 0 mm 1 mps 675 mmHg 91%
    20:00 -8°C° 0 mm 1 mps 675 mmHg 89%
    21:00 -8°C° 0 mm 1 mps 675 mmHg 87%
    22:00 -9°C° 0 mm 1 mps 676 mmHg 86%
    23:00 -9°C° 0 mm 1 mps 676 mmHg 84%

    Tomorrow, 15 December, Saturday

    Time Temperature Precipitation Wind Pressure Humidity
    00:00 -9°C° 0 mm 1 mps 676 mmHg 83%
    01:00 -9°C° 0 mm 1 mps 676 mmHg 81%
    02:00 -9°C° 0.1 mm 1 mps 676 mmHg 82%
    03:00 -9°C° 0.1 mm 1 mps 676 mmHg 83%
    04:00 -9°C° 0.1 mm 1 mps 676 mmHg 83%
    05:00 -9°C° 0 mm 1 mps 677 mmHg 84%
    06:00 -9°C° 0 mm 1 mps 677 mmHg 84%
    07:00 -9°C° 0 mm 1 mps 677 mmHg 85%
    08:00 -8°C° 0 mm 1 mps 677 mmHg 83%
    09:00 -7°C° 0 mm 1 mps 677 mmHg 81%
    10:00 -6°C° 0 mm 1 mps 678 mmHg 79%
    11:00 -4°C° 0 mm 1 mps 677 mmHg 76%
    12:00 -3°C° 0 mm 1 mps 677 mmHg 73%
    13:00 -2°C° 0 mm 1 mps 677 mmHg 71%
    14:00 -3°C° 0 mm 1 mps 677 mmHg 75%
    15:00 -4°C° 0 mm 1 mps 676 mmHg 79%
    16:00 -6°C° 0 mm 1 mps 676 mmHg 83%
    17:00 -7°C° 0 mm 1 mps 676 mmHg 82%
    18:00 -7°C° 0 mm 1 mps 676 mmHg 80%
    19:00 -8°C° 0 mm 1 mps 676 mmHg 79%
    20:00 -8°C° 0 mm 1 mps 676 mmHg 76%
    21:00 -8°C° 0 mm 1 mps 676 mmHg 73%
    22:00 -8°C° 0 mm 1 mps 676 mmHg 70%
    23:00 -8°C° 0 mm 1 mps 675 mmHg 67%

    Day after tomorrow, 16 December, Sunday

    Time Temperature Precipitation Wind Pressure Humidity
    00:00 -7°C° 0 mm 1 mps 675 mmHg 65%
    01:00 -7°C° 0 mm 1 mps 675 mmHg 63%
    02:00 -7°C° 0 mm 1 mps 674 mmHg 61%
    03:00 -6°C° 0 mm 1 mps 674 mmHg 59%
    04:00 -6°C° 0 mm 1 mps 674 mmHg 58%
    05:00 -4°C° 0 mm 1 mps 674 mmHg 59%
    06:00 -3°C° 0 mm 1 mps 674 mmHg 61%
    07:00 -2°C° 0 mm 1 mps 674 mmHg 62%
    08:00 -1°C° 0.2 mm 1 mps 674 mmHg 67%
    09:00 0°C° 0.2 mm 1 mps 674 mmHg 72%
    10:00 +1°C° 0.2 mm 1 mps 675 mmHg 76%
    11:00 +2°C° 0 mm 1 mps 674 mmHg 78%
    12:00 +3°C° 0 mm 1 mps 674 mmHg 80%
    13:00 +3°C° 0 mm 0 mps 674 mmHg 81%
    14:00 +3°C° 0.1 mm 0 mps 674 mmHg 84%
    15:00 +3°C° 0.1 mm 1 mps 674 mmHg 86%
    16:00 +2°C° 0.1 mm 1 mps 674 mmHg 89%
    17:00 +2°C° 0.3 mm 1 mps 675 mmHg 90%
    18:00 +1°C° 0.3 mm 0 mps 675 mmHg 91%
    19:00 0°C° 0.3 mm 0 mps 675 mmHg 92%
    20:00 0°C° 0.6 mm 0 mps 675 mmHg 93%
    21:00 0°C° 0.6 mm 0 mps 675 mmHg 94%
    22:00 0°C° 0.6 mm 0 mps 675 mmHg 95%
    23:00 +1°C° 0.4 mm 1 mps 675 mmHg 95%

    17 December, Monday

    Time Temperature Precipitation Wind Pressure Humidity
    00:00 +1°C° 0.4 mm 1 mps 675 mmHg 95%
    01:00 +1°C° 0.4 mm 1 mps 675 mmHg 95%
    02:00 +1°C° 0 mm 1 mps 675 mmHg 94%
    03:00 +1°C° 0 mm 1 mps 674 mmHg 93%
    04:00 0°C° 0 mm 1 mps 674 mmHg 92%
    05:00 0°C° 0 mm 1 mps 674 mmHg 91%
    06:00 0°C° 0 mm 1 mps 674 mmHg 91%
    07:00 -1°C° 0 mm 1 mps 675 mmHg 90%
    08:00 0°C° 0 mm 1 mps 675 mmHg 89%
    09:00 +1°C° 0 mm 1 mps 676 mmHg 88%
    10:00 +1°C° 0 mm 1 mps 676 mmHg 87%
    11:00 +2°C° 0 mm 1 mps 677 mmHg 87%
    12:00 +3°C° 0 mm 1 mps 677 mmHg 87%
    13:00 +3°C° 0 mm 1 mps 677 mmHg 86%
    14:00 +2°C° 0 mm 1 mps 677 mmHg 89%
    15:00 +2°C° 0 mm 1 mps 678 mmHg 91%
    16:00 +1°C° 0 mm 1 mps 678 mmHg 93%
    17:00 0°C° 0 mm 1 mps 678 mmHg 93%
    18:00 -2°C° 0 mm 2 mps 679 mmHg 93%
    19:00 -2°C° 0 mm 2 mps 680 mmHg 93%
    20:00 -2°C° 0 mm 2 mps 680 mmHg 92%
    21:00 -3°C° 0 mm 2 mps 681 mmHg 91%
    22:00 -3°C° 0 mm 2 mps 681 mmHg 90%
    23:00 -3°C° 0 mm 2 mps 681 mmHg 89%

    18 December, Tuesday

    Time Temperature Precipitation Wind Pressure Humidity
    00:00 -3°C° 0 mm 2 mps 681 mmHg 87%
    01:00 -4°C° 0 mm 2 mps 681 mmHg 86%
    02:00 -4°C° 0 mm 2 mps 681 mmHg 86%
    03:00 -4°C° 0 mm 2 mps 681 mmHg 86%
    04:00 -4°C° 0 mm 2 mps 682 mmHg 85%
    05:00 -2°C° 0 mm 1 mps 682 mmHg 85%
    06:00 -2°C° 0 mm 1 mps 682 mmHg 85%
    07:00 -2°C° 0 mm 1 mps 682 mmHg 85%
    08:00 -1°C° 0 mm 1 mps 682 mmHg 83%
    09:00 0°C° 0 mm 1 mps 682 mmHg 81%
    10:00 +1°C° 0 mm 1 mps 682 mmHg 79%
    11:00 +2°C° 0 mm 1 mps 681 mmHg 78%
    12:00 +3°C° 0 mm 1 mps 681 mmHg 77%
    13:00 +5°C° 0 mm 1 mps 680 mmHg 76%
    14:00 +3°C° 0 mm 1 mps 680 mmHg 77%
    15:00 +2°C° 0 mm 1 mps 679 mmHg 79%
    16:00 -1°C° 0 mm 2 mps 679 mmHg 80%
    17:00 -2°C° 0 mm 2 mps 679 mmHg 75%
    18:00 -2°C° 0 mm 2 mps 679 mmHg 71%
    19:00 -3°C° 0 mm 2 mps 679 mmHg 66%
    20:00 -3°C° 0 mm 2 mps 678 mmHg 63%
    21:00 -3°C° 0 mm 2 mps 678 mmHg 61%
    22:00 -3°C° 0 mm 2 mps 678 mmHg 58%
    23:00 -3°C° 0 mm 2 mps 678 mmHg 57%

    19 December, Wednesday

    Time Temperature Precipitation Wind Pressure Humidity
    00:00 -3°C° 0 mm 2 mps 677 mmHg 57%
    01:00 -3°C° 0 mm 2 mps 677 mmHg 56%
    02:00 -2°C° 0 mm 2 mps 677 mmHg 57%
    03:00 -2°C° 0 mm 2 mps 677 mmHg 58%
    04:00 -1°C° 0 mm 2 mps 676 mmHg 58%
    05:00 -1°C° 0 mm 2 mps 676 mmHg 59%
    06:00 +1°C° 0 mm 1 mps 676 mmHg 60%
    07:00 +1°C° 0 mm 1 mps 676 mmHg 61%
    08:00 +1°C° 0 mm 1 mps 676 mmHg 62%
    09:00 +2°C° 0 mm 1 mps 676 mmHg 63%
    10:00 +3°C° 0 mm 1 mps 677 mmHg 64%
    11:00 +4°C° 0 mm 1 mps 677 mmHg 66%
    12:00 +4°C° 0 mm 0 mps 676 mmHg 67%
    13:00 +4°C° 0 mm 0 mps 676 mmHg 68%
    14:00 +3°C° 0 mm 0 mps 676 mmHg 70%
    15:00 +2°C° 0 mm 0 mps 676 mmHg 72%
    16:00 +1°C° 0 mm 0 mps 676 mmHg 74%
    17:00 +1°C° 0 mm 1 mps 676 mmHg 74%
    18:00 +1°C° 0 mm 1 mps 676 mmHg 75%
    19:00 0°C° 0 mm 1 mps 676 mmHg 75%
    20:00 0°C° 0 mm 1 mps 676 mmHg 76%
    21:00 0°C° 0 mm 1 mps 676 mmHg 76%
    22:00 0°C° 0 mm 1 mps 676 mmHg 77%
    23:00 +1°C° 0.1 mm 1 mps 676 mmHg 78%
    Show more